N2DJ Weather Reports


time (UTC)temp
F
wind
direction
speed
knots
gust
knots
rain 1hr
in
rain 24hr
in
rain mn
in
humidity
%
barometer
mb
20260507150021 49 308 1.7 4.3 0.00 0.05 0.00 66 1013.3
20260507144516 49 269 0.9 4.3 0.00 0.05 0.00 67 1013.4
20260507143029 48 289 0.0 6.1 0.00 0.05 0.00 69 1013.4
20260507141509 47 294 0.9 6.1 0.00 0.05 0.00 68 1013.4
20260507140006 47 258 1.7 6.1 0.00 0.06 0.00 69 1013.5
20260507134617 46 204 0.9 6.1 0.00 0.06 0.00 73 1013.7
20260507133109 45 67 0.0 4.3 0.00 0.06 0.00 74 1013.7
20260507131607 44 108 0.0 5.2 0.00 0.06 0.00 75 1013.9
20260507130048 43 95 0.9 3.5 0.00 0.06 0.00 80 1014.0
20260507124544 41 99 1.7 5.2 0.00 0.08 0.00 90 1014.0
20260507123045 39 59 0.9 2.6 0.00 0.08 0.00 97 1014.0
20260507121544 39 53 0.9 2.6 0.00 0.08 0.00 97 1014.0
20260507120038 39 24 0.0 1.7 0.00 0.08 0.00 97 1014.2
20260507114536 39 304 0.0 0.0 0.00 0.11 0.00 97 1014.3
20260507113036 39 304 0.0 1.7 0.00 0.11 0.00 97 1014.4
20260507111533 40 300 0.0 0.0 0.00 0.11 0.00 98 1014.2
20260507110030 40 300 0.0 0.0 0.00 0.11 0.00 97 1013.9
20260507104528 40 300 0.0 0.0 0.00 0.13 0.00 98 1013.4
20260507103027 39 300 0.0 0.0 0.00 0.13 0.00 97 1013.5
20260507101524 39 300 0.0 0.0 0.00 0.13 0.00 98 1013.2
20260507100029 38 300 0.0 0.0 0.00 0.13 0.00 98 1013.3
20260507094523 38 300 0.0 0.0 0.00 0.19 0.00 97 1013.4
20260507093022 38 300 0.0 0.0 0.00 0.19 0.00 97 1013.2
20260507091523 38 300 0.0 0.0 0.00 0.19 0.00 97 1013.3
20260507090022 39 300 0.0 0.0 0.00 0.19 0.00 97 1013.2
20260507084520 39 300 0.0 0.0 0.00 0.26 0.00 97 1013.2
20260507083019 38 300 0.0 0.0 0.00 0.26 0.00 97 1013.2
20260507081520 37 300 0.0 0.0 0.00 0.26 0.00 97 1013.4
20260507080017 37 300 0.0 0.0 0.00 0.35 0.00 96 1013.2
20260507074516 38 300 0.0 0.0 0.00 0.35 0.00 97 1013.2
20260507073015 38 300 0.0 0.0 0.00 0.35 0.00 96 1012.9
20260507071523 38 300 0.0 0.0 0.00 0.35 0.00 96 1013.1
20260507070013 39 300 0.0 0.0 0.00 0.41 0.00 96 1013.1
20260507064510 39 300 0.0 0.0 0.00 0.41 0.00 96 1013.1
20260507063006 40 300 0.0 0.0 0.00 0.41 0.00 96 1013.4
20260507061505 41 300 0.0 0.0 0.00 0.41 0.00 96 1013.5
20260507060002 41 300 0.0 0.0 0.00 0.48 0.00 96 1013.6
20260507054500 42 300 0.0 0.0 0.00 0.48 0.00 97 1013.6
20260507053110 42 300 0.0 0.9 0.00 0.48 0.00 96 1013.7
20260507051608 42 300 0.0 0.9 0.00 0.48 0.00 96 1013.7
20260507050056 42 300 0.0 1.7 0.00 0.48 0.00 96 1014.0
20260507044558 42 300 0.0 0.9 0.00 0.53 0.00 96 1013.9
20260507043056 42 300 0.0 0.0 0.00 0.53 0.00 96 1014.1
20260507041554 42 300 0.0 0.9 0.00 0.53 0.00 96 1013.9
20260507040051 42 300 0.0 0.0 0.00 0.53 0.00 96 1014.0
20260507034551 42 300 0.0 0.0 0.00 0.55 0.53 96 1013.9
20260507033050 42 300 0.0 0.0 0.00 0.55 0.53 96 1013.9
20260507031550 42 300 0.0 0.9 0.00 0.55 0.53 96 1014.0
20260507030049 42 301 0.0 0.9 0.00 0.55 0.53 96 1014.1
20260507024548 42 301 0.0 0.9 0.00 0.61 0.53 96 1013.9
20260507023048 42 301 0.0 0.0 0.00 0.61 0.53 96 1013.8
20260507021547 42 301 0.0 0.9 0.00 0.61 0.53 96 1014.0
20260507020100 42 301 0.0 1.7 0.00 0.61 0.53 96 1014.2
20260507014548 42 321 0.0 0.9 0.00 0.64 0.53 95 1014.3
20260507013045 42 321 0.0 0.0 0.00 0.64 0.53 95 1014.2
20260507011545 42 321 0.0 0.0 0.00 0.64 0.53 95 1013.9
20260507010057 42 321 0.0 0.9 0.00 0.64 0.53 95 1013.9
20260507004540 42 321 0.0 0.9 0.00 0.76 0.53 95 1013.6
20260507003040 43 321 0.0 0.0 0.00 0.76 0.53 94 1013.3
20260507001539 43 321 0.0 0.0 0.00 0.76 0.53 94 1013.2
20260507000037 42 321 0.0 0.9 0.00 0.76 0.53 94 1013.2
20260506234537 42 321 0.0 2.6 0.00 0.88 0.53 94 1013.1
20260506233037 43 321 0.0 2.6 0.00 0.88 0.53 95 1013.2
20260506231544 42 336 0.0 3.5 0.00 0.88 0.53 95 1013.0
20260506230041 42 9 0.9 4.3 0.00 0.88 0.53 95 1012.7
20260506224538 42 310 1.7 5.2 0.00 1.01 0.53 95 1012.6
20260506223031 42 329 2.6 7.0 0.00 1.01 0.53 95 1012.3
20260506221530 42 320 1.7 7.8 0.01 1.01 0.53 95 1012.1
20260506220035 42 311 2.6 8.7 0.02 1.01 0.53 95 1011.9
20260506214527 41 331 2.6 10.4 0.03 1.25 0.53 95 1012.1
20260506213027 42 322 3.5 11.3 0.03 1.25 0.53 94 1011.9
20260506211529 43 313 4.3 9.6 0.02 1.24 0.52 93 1011.5
20260506210024 44 324 3.5 12.2 0.01 1.42 0.51 92 1011.3
20260506204516 47 286 5.2 11.3 0.00 1.41 0.50 90 1010.8
20260506203016 49 313 4.3 13.0 0.00 1.41 0.50 87 1010.7
20260506201526 50 179 0.9 3.5 0.00 1.41 0.50 87 1010.3
20260506200013 50 256 0.0 3.5 0.00 1.41 0.50 87 1010.5
20260506194513 50 228 0.0 3.5 0.00 1.41 0.50 86 1010.4
20260506193013 50 217 0.0 3.5 0.00 1.41 0.50 87 1010.3
20260506191512 50 173 0.0 2.6 0.00 1.41 0.50 87 1010.5
20260506190015 50 173 0.0 1.7 0.00 1.41 0.50 87 1010.3
20260506184519 50 173 0.9 3.5 0.00 1.41 0.50 88 1010.3
20260506183009 50 101 0.0 3.5 0.00 1.41 0.50 89 1010.1
20260506181506 49 117 0.9 3.5 0.00 1.41 0.50 90 1010.4
20260506180004 49 115 0.0 2.6 0.00 1.41 0.50 91 1010.4
20260506174502 48 115 0.0 1.7 0.00 1.41 0.50 91 1010.3
20260506173002 48 115 0.0 0.9 0.00 1.41 0.50 92 1010.6
20260506171609 48 115 0.0 1.7 0.00 1.41 0.50 92 1010.6
20260506170100 48 115 0.0 2.6 0.00 1.41 0.50 93 1010.6
20260506164558 48 96 0.9 3.5 0.00 1.41 0.50 93 1010.4
20260506163107 48 94 1.7 5.2 0.00 1.41 0.50 93 1010.1
20260506161558 47 79 0.9 2.6 0.00 1.41 0.50 93 1010.4
20260506160108 47 91 0.9 2.6 0.00 1.41 0.50 94 1010.4
20260506154555 47 92 0.0 1.7 0.00 1.41 0.50 95 1010.1
20260506153053 47 92 0.9 5.2 0.00 1.41 0.50 95 1010.4
20260506151552 47 71 1.7 4.3 0.01 1.41 0.50 96 1010.1